Starlink 5588

operational
NORAD ID: 55375 Int'l Des: 2023-013 Owner: SPXS Country: US Constellation: starlink
LEOCIRCULAR

Starlink 5588について

説明を読み込み中...

リアルタイム位置

3D地球を読み込み中...

次回通過

高度履歴

Altitude vs Time

uPlot chart will show altitude changes over time

軌道要素

1 55375U 23013AW 26061.51716766 .00001017 00000-0 90302-4 0 9995
2 55375 43.0024 352.0235 0001025 272.4733 87.5992 15.02537829170488
Epoch: Mar 2, 2026 • Age: 24 hours

現在のステータス

高度 561.8 km
速度 7.58 km/s
衛星直下点 -15.10°S, 18.07°E
打ち上げ日 Jan 26, 2023
運用期間 3 years
タイプ internet

技術仕様

分類 Payload
質量 305.00 kg
乾燥質量 290.00 kg
総質量 305.00 kg
長さ 0.20 m
直径 2.80 m
スパン 9.00 m
形状 Box + pan
製造者 SPXS
バスタイプ Starlink
フェーズステータス In Orbit
所有者/国 SPXS/US

大規模コンステレーション

Loading constellations...